| time (UTC) | temp F | wind direction | speed knots | gust knots | rain 1hr in | rain 24hr in | rain mn in | humidity % | barometer mb |
| 20260505160112 | 77 | 142 | 3.5 | 11.3 | 0.00 | 0.00 | 0.00 | 40 | 1005.1 |
| 20260505153112 | 78 | 281 | 1.7 | 10.4 | 0.00 | 0.00 | 0.00 | 35 | 1005.4 |
| 20260505150111 | 78 | 188 | 4.3 | 12.2 | 0.00 | 0.00 | 0.00 | 34 | 1005.6 |
| 20260505140111 | 78 | 149 | 2.6 | 7.8 | 0.00 | 0.00 | 0.00 | 37 | 1006.4 |
| 20260505130110 | 77 | 241 | 2.6 | 11.3 | 0.00 | 0.00 | 0.00 | 42 | 1007.2 |
| 20260505124610 | 77 | 169 | 5.2 | 10.4 | 0.00 | 0.00 | 0.00 | 45 | 1007.7 |
| 20260505123110 | 75 | 142 | 6.1 | 10.4 | 0.00 | 0.00 | 0.00 | 44 | 1007.9 |
| 20260505121610 | 74 | 171 | 7.0 | 13.9 | 0.00 | 0.00 | 0.00 | 45 | 1008.2 |
| 20260505114610 | 74 | 145 | 5.2 | 9.6 | 0.00 | 0.00 | 0.00 | 46 | 1008.2 |
| 20260505113110 | 74 | 114 | 3.5 | 13.9 | 0.00 | 0.00 | 0.00 | 47 | 1008.4 |
| 20260505111610 | 73 | 136 | 5.2 | 10.4 | 0.00 | 0.00 | 0.00 | 47 | 1008.3 |
| 20260505110111 | 73 | 141 | 7.0 | 13.9 | 0.00 | 0.00 | 0.00 | 47 | 1008.5 |
| 20260505101610 | 72 | 82 | 1.7 | 7.8 | 0.00 | 0.00 | 0.00 | 49 | 1008.9 |
| 20260505100110 | 71 | 88 | 1.7 | 7.0 | 0.00 | 0.00 | 0.00 | 52 | 1009.0 |
| 20260505094609 | 69 | 194 | 3.5 | 7.8 | 0.00 | 0.00 | 0.00 | 54 | 1009.1 |
| 20260505093109 | 68 | 129 | 4.3 | 7.8 | 0.00 | 0.00 | 0.00 | 54 | 1009.2 |
| 20260505091609 | 67 | 164 | 4.3 | 7.8 | 0.00 | 0.00 | 0.00 | 54 | 1009.4 |
| 20260505083109 | 65 | 140 | 3.5 | 7.0 | 0.00 | 0.00 | 0.00 | 57 | 1009.8 |
| 20260505081611 | 64 | 167 | 2.6 | 6.1 | 0.00 | 0.00 | 0.00 | 57 | 1009.9 |
| 20260505080109 | 64 | 146 | 3.5 | 7.0 | 0.00 | 0.00 | 0.00 | 55 | 1009.8 |
| 20260505074609 | 62 | 156 | 1.7 | 5.2 | 0.00 | 0.00 | 0.00 | 56 | 1009.9 |
| 20260505071609 | 61 | 156 | 1.7 | 3.5 | 0.00 | 0.00 | 0.00 | 58 | 1009.9 |
| 20260505070109 | 60 | 164 | 1.7 | 4.3 | 0.00 | 0.00 | 0.00 | 60 | 1010.1 |
| 20260505064609 | 60 | 167 | 1.7 | 7.0 | 0.00 | 0.00 | 0.00 | 57 | 1010.2 |
| 20260505063108 | 60 | 158 | 3.5 | 7.8 | 0.00 | 0.00 | 0.00 | 56 | 1010.2 |
| 20260505061608 | 60 | 115 | 1.7 | 4.3 | 0.00 | 0.00 | 0.00 | 57 | 1010.3 |
| 20260505060110 | 60 | 84 | 1.7 | 6.1 | 0.00 | 0.00 | 0.00 | 56 | 1010.2 |
| 20260505054609 | 59 | 73 | 4.3 | 7.8 | 0.00 | 0.00 | 0.00 | 55 | 1010.0 |
| 20260505053108 | 58 | 69 | 4.3 | 7.0 | 0.00 | 0.00 | 0.00 | 56 | 1010.0 |
| 20260505051608 | 56 | 105 | 4.3 | 7.0 | 0.00 | 0.00 | 0.00 | 58 | 1009.9 |
| 20260505050108 | 53 | 76 | 1.7 | 2.6 | 0.00 | 0.00 | 0.00 | 63 | 1010.1 |
| 20260505041613 | 51 | 34 | 2.6 | 7.0 | 0.00 | 0.00 | 0.00 | 66 | 1010.0 |
| 20260505034613 | 50 | 337 | 1.7 | 3.5 | 0.00 | 0.00 | 0.00 | 67 | 1010.1 |
| 20260505033113 | 51 | 331 | 0.9 | 2.6 | 0.00 | 0.00 | 0.00 | 67 | 1010.1 |
| 20260505031612 | 51 | 331 | 0.0 | 0.0 | 0.00 | 0.00 | 0.00 | 66 | 1010.0 |
| 20260505030112 | 51 | 330 | 0.9 | 1.7 | 0.00 | 0.00 | 0.00 | 66 | 1010.1 |
| 20260505024612 | 52 | 329 | 0.9 | 2.6 | 0.00 | 0.00 | 0.00 | 65 | 1010.4 |
| 20260505020112 | 54 | 21 | 0.9 | 2.6 | 0.00 | 0.00 | 0.00 | 61 | 1010.7 |
| 20260505014612 | 54 | 31 | 0.9 | 4.3 | 0.00 | 0.00 | 0.00 | 62 | 1010.7 |
| 20260505011611 | 55 | 66 | 0.9 | 1.7 | 0.00 | 0.00 | 0.00 | 61 | 1010.8 |
| 20260505010111 | 55 | 64 | 1.7 | 3.5 | 0.00 | 0.00 | 0.00 | 60 | 1010.9 |
| 20260505004611 | 56 | 20 | 1.7 | 2.6 | 0.00 | 0.00 | 0.00 | 60 | 1011.0 |
| 20260505003111 | 56 | 57 | 0.0 | 2.6 | 0.00 | 0.00 | 0.00 | 58 | 1011.1 |
| 20260505001611 | 56 | 32 | 1.7 | 3.5 | 0.00 | 0.00 | 0.00 | 58 | 1011.3 |
| 20260505000111 | 56 | 22 | 1.7 | 6.1 | 0.00 | 0.00 | 0.00 | 59 | 1011.4 |
| 20260504233111 | 56 | 343 | 1.7 | 2.6 | 0.00 | 0.00 | 0.00 | 60 | 1011.8 |
| 20260504231611 | 57 | 347 | 0.0 | 1.7 | 0.00 | 0.00 | 0.00 | 59 | 1011.7 |
| 20260504230111 | 57 | 38 | 2.6 | 4.3 | 0.00 | 0.00 | 0.00 | 59 | 1011.8 |
| 20260504224611 | 57 | 306 | 0.0 | 2.6 | 0.00 | 0.00 | 0.00 | 59 | 1012.0 |
| 20260504223110 | 57 | 309 | 1.7 | 2.6 | 0.00 | 0.00 | 0.00 | 60 | 1012.1 |
| 20260504221611 | 58 | 305 | 1.7 | 2.6 | 0.00 | 0.00 | 0.00 | 58 | 1012.2 |
| 20260504214610 | 60 | 312 | 1.7 | 2.6 | 0.00 | 0.00 | 0.00 | 55 | 1012.4 |
| 20260504213110 | 62 | 329 | 0.9 | 2.6 | 0.00 | 0.00 | 0.00 | 50 | 1012.6 |
| 20260504211612 | 63 | 117 | 2.6 | 7.0 | 0.00 | 0.00 | 0.00 | 49 | 1012.6 |
| 20260504210110 | 62 | 74 | 1.7 | 7.0 | 0.00 | 0.00 | 0.00 | 50 | 1012.5 |
| 20260504204610 | 62 | 64 | 0.9 | 5.2 | 0.00 | 0.00 | 0.00 | 53 | 1012.7 |
| 20260504203109 | 63 | 28 | 0.0 | 2.6 | 0.00 | 0.00 | 0.00 | 52 | 1012.8 |
| 20260504201610 | 64 | 65 | 1.7 | 4.3 | 0.00 | 0.00 | 0.00 | 49 | 1012.8 |
| 20260504200109 | 64 | 88 | 1.7 | 4.3 | 0.00 | 0.00 | 0.00 | 49 | 1012.9 |
| 20260504194610 | 64 | 81 | 3.5 | 7.0 | 0.00 | 0.00 | 0.00 | 50 | 1012.8 |
| 20260504191609 | 64 | 95 | 0.0 | 1.7 | 0.00 | 0.00 | 0.00 | 51 | 1012.9 |
| 20260504190109 | 64 | 74 | 0.0 | 0.0 | 0.00 | 0.00 | 0.00 | 51 | 1012.9 |
| 20260504184609 | 65 | 101 | 0.0 | 1.7 | 0.00 | 0.00 | 0.00 | 50 | 1012.7 |
| 20260504181609 | 67 | 143 | 0.0 | 1.7 | 0.00 | 0.00 | 0.00 | 48 | 1012.7 |
| 20260504180110 | 68 | 144 | 0.0 | 0.0 | 0.00 | 0.00 | 0.00 | 48 | 1012.5 |
| 20260504174609 | 70 | 166 | 0.0 | 0.9 | 0.00 | 0.00 | 0.00 | 46 | 1012.6 |
| 20260504173108 | 71 | 155 | 0.9 | 5.2 | 0.00 | 0.00 | 0.00 | 46 | 1012.6 |
| 20260504171609 | 71 | 213 | 0.9 | 3.5 | 0.00 | 0.00 | 0.00 | 45 | 1012.5 |
| 20260504170108 | 72 | 96 | 2.6 | 5.2 | 0.00 | 0.00 | 0.00 | 44 | 1012.4 |